Location: Heidgraben
(53.7081°N, 9.6576°E)
Time: 10:53:37
(UTC+00:00)

Cosmos 1892 - Pass Details

Date: 05 July 2020
Orbit: 505 x 523 km, 82.5° (Epoch: 05 August)

Event Time Altitude Azimuth Distance (km) Brightness Sun altitude
Exits shadow 22:42:05 10° 220° (SW) 1,755 5.0 -13.0°
Reaches altitude 10° 22:42:09 10° 221° (SW) 1,725 5.0 -13.0°
Maximum altitude 22:45:40 36° 289° (WNW) 834 4.0 -13.1°
Drops below altitude 10° 22:49:13 10° 357° (N) 1,748 6.9 -13.2°
Sets 22:51:30 0° 6° (N) 2,643 8.0 -13.3°
